Time,TemperatureF,DewpointF,PressureIn,WindDirection,WindDirectionDegrees,WindSpeedMPH,WindSpeedGustMPH,Humidity,HourlyPrecipIn,Conditions,Clouds,dailyrainin,SoftwareType,DateUTC
2013-02-17 00:00:00,32.4,26.3,29.62,North,360,2.0,16.0,78,0.00,,,0.00,VWS V14.01,2013-02-17 05:00:00,
2013-02-17 00:01:00,32.4,26.3,29.62,North,360,2.0,16.0,78,0.00,,,0.00,VWS V14.01,2013-02-17 05:01:00,
2013-02-17 00:06:00,32.3,26.5,29.63,North,355,2.0,14.0,79,0.00,,,0.00,VWS V14.01,2013-02-17 05:06:00,
2013-02-17 00:13:00,32.0,26.5,29.62,NNW,347,2.0,8.0,80,0.00,,,0.00,VWS V14.01,2013-02-17 05:13:00,
2013-02-17 00:18:00,31.9,26.4,29.62,WNW,284,10.0,15.0,80,0.00,,,0.00,VWS V14.01,2013-02-17 05:18:00,
2013-02-17 00:23:00,31.7,26.2,29.62,NNW,327,5.0,17.0,80,0.00,,,0.00,VWS V14.01,2013-02-17 05:23:00,
2013-02-17 00:28:00,31.6,26.5,29.63,WNW,296,2.0,17.0,81,0.00,,,0.00,VWS V14.01,2013-02-17 05:28:00,
2013-02-17 00:33:00,31.6,26.8,29.64,NNW,327,4.0,5.0,82,0.00,,,0.00,VWS V14.01,2013-02-17 05:33:00,
2013-02-17 00:38:00,31.5,26.6,29.63,NNW,341,4.0,14.0,82,0.00,,,0.00,VWS V14.01,2013-02-17 05:38:00,
2013-02-17 00:43:00,31.3,26.5,29.63,NW,313,2.0,14.0,82,0.00,,,0.00,VWS V14.01,2013-02-17 05:43:00,
2013-02-17 00:48:00,31.2,26.4,29.63,WNW,303,2.0,14.0,82,0.00,,,0.00,VWS V14.01,2013-02-17 05:48:00,
2013-02-17 00:53:00,31.1,26.5,29.62,NNW,331,3.0,14.0,83,0.00,,,0.00,VWS V14.01,2013-02-17 05:53:00,
2013-02-17 00:58:00,31.0,26.5,29.61,NNW,327,2.0,14.0,83,0.00,,,0.00,VWS V14.01,2013-02-17 05:58:00,
2013-02-17 01:03:00,30.8,26.5,29.60,NW,315,6.0,9.0,84,0.00,,,0.00,VWS V14.01,2013-02-17 06:03:00,
2013-02-17 01:08:00,30.7,26.5,29.59,NW,316,4.0,9.0,84,0.00,,,0.00,VWS V14.01,2013-02-17 06:08:00,
2013-02-17 01:13:00,30.6,26.6,29.60,North,355,4.0,12.0,85,0.00,,,0.00,VWS V14.01,2013-02-17 06:13:00,
2013-02-17 01:18:00,30.4,26.4,29.60,NNW,336,3.0,14.0,85,0.00,,,0.00,VWS V14.01,2013-02-17 06:18:00,
2013-02-17 01:23:00,30.3,26.3,29.60,NW,318,10.0,14.0,85,0.00,,,0.00,VWS V14.01,2013-02-17 06:23:00,
2013-02-17 01:29:00,30.1,26.1,29.60,NW,313,2.0,14.0,85,0.00,,,0.00,VWS V14.01,2013-02-17 06:29:00,
2013-02-17 01:34:00,30.0,26.3,29.59,NW,326,2.0,12.0,86,0.00,,,0.00,VWS V14.01,2013-02-17 06:34:00,
2013-02-17 01:39:00,29.9,26.2,29.59,NW,325,4.0,13.0,86,0.00,,,0.00,VWS V14.01,2013-02-17 06:39:00,
2013-02-17 01:44:00,29.7,26.0,29.59,NW,312,3.0,13.0,86,0.00,,,0.00,VWS V14.01,2013-02-17 06:44:00,
2013-02-17 01:49:00,29.6,26.2,29.59,NNW,327,1.0,13.0,87,0.00,,,0.00,VWS V14.01,2013-02-17 06:49:00,
2013-02-17 01:54:00,29.5,26.1,29.59,NW,306,2.0,14.0,87,0.00,,,0.00,VWS V14.01,2013-02-17 06:54:00,
2013-02-17 01:59:00,29.5,26.1,29.60,NW,311,0.0,14.0,87,0.00,,,0.00,VWS V14.01,2013-02-17 06:59:00,
2013-02-17 02:04:00,29.4,26.3,29.59,NNW,340,4.0,10.0,88,0.00,,,0.00,VWS V14.01,2013-02-17 07:04:00,
2013-02-17 02:09:00,29.2,26.1,29.59,NNW,345,3.0,10.0,88,0.00,,,0.00,VWS V14.01,2013-02-17 07:09:00,
2013-02-17 02:14:00,29.1,26.0,29.59,NW,306,3.0,10.0,88,0.00,,,0.00,VWS V14.01,2013-02-17 07:14:00,
2013-02-17 02:19:00,29.0,25.9,29.59,WNW,287,1.0,12.0,88,0.00,,,0.00,VWS V14.01,2013-02-17 07:19:00,
2013-02-17 02:24:00,28.8,25.7,29.58,NNW,344,1.0,12.0,88,0.00,,,0.00,VWS V14.01,2013-02-17 07:24:00,
2013-02-17 02:29:00,28.7,25.6,29.58,NW,309,5.0,12.0,88,0.00,,,0.00,VWS V14.01,2013-02-17 07:29:00,
2013-02-17 02:34:00,28.5,25.4,29.58,WNW,299,3.0,16.0,88,0.00,,,0.00,VWS V14.01,2013-02-17 07:34:00,
2013-02-17 02:39:00,28.4,25.3,29.58,NNW,331,2.0,16.0,88,0.00,,,0.00,VWS V14.01,2013-02-17 07:39:00,
2013-02-17 02:44:00,28.2,25.1,29.57,NNW,331,11.0,17.0,88,0.00,,,0.00,VWS V14.01,2013-02-17 07:44:00,
2013-02-17 02:49:00,28.1,25.0,29.56,NNW,327,1.0,17.0,88,0.00,,,0.00,VWS V14.01,2013-02-17 07:49:00,
2013-02-17 02:54:00,27.9,24.8,29.56,NNW,327,2.0,17.0,88,0.00,,,0.00,VWS V14.01,2013-02-17 07:54:00,
2013-02-17 02:59:00,27.8,24.7,29.56,NNW,343,4.0,17.0,88,0.00,,,0.00,VWS V14.01,2013-02-17 07:59:00,
2013-02-17 03:04:00,27.5,24.4,29.57,NNW,348,4.0,7.0,88,0.00,,,0.00,VWS V14.01,2013-02-17 08:04:00,
2013-02-17 03:09:00,27.2,24.1,29.57,NW,309,4.0,14.0,88,0.00,,,0.00,VWS V14.01,2013-02-17 08:09:00,
2013-02-17 03:14:00,27.0,23.9,29.57,NW,309,5.0,14.0,88,0.00,,,0.00,VWS V14.01,2013-02-17 08:14:00,
2013-02-17 03:19:00,26.8,23.5,29.58,NNW,335,3.0,14.0,87,0.00,,,0.00,VWS V14.01,2013-02-17 08:19:00,
2013-02-17 03:24:00,26.6,23.5,29.58,NNW,344,9.0,14.0,88,0.00,,,0.00,VWS V14.01,2013-02-17 08:24:00,
2013-02-17 03:29:00,26.3,23.2,29.58,NW,326,5.0,14.0,88,0.00,,,0.00,VWS V14.01,2013-02-17 08:29:00,
2013-02-17 03:34:00,26.2,23.1,29.58,NNW,346,2.0,7.0,88,0.00,,,0.00,VWS V14.01,2013-02-17 08:34:00,
2013-02-17 03:39:00,26.1,23.0,29.57,NW,308,4.0,8.0,88,0.00,,,0.00,VWS V14.01,2013-02-17 08:39:00,
2013-02-17 03:44:00,25.9,22.8,29.56,NW,323,3.0,10.0,88,0.00,,,0.00,VWS V14.01,2013-02-17 08:44:00,
2013-02-17 03:49:00,25.7,22.6,29.56,NW,315,3.0,10.0,88,0.00,,,0.00,VWS V14.01,2013-02-17 08:49:00,
2013-02-17 03:54:00,25.6,22.5,29.55,WNW,300,14.0,14.0,88,0.00,,,0.00,VWS V14.01,2013-02-17 08:54:00,
2013-02-17 03:59:00,25.4,22.1,29.55,NNW,338,6.0,16.0,87,0.00,,,0.00,VWS V14.01,2013-02-17 08:59:00,
2013-02-17 04:04:00,25.4,22.1,29.55,WNW,296,7.0,13.0,87,0.00,,,0.00,VWS V14.01,2013-02-17 09:04:00,
2013-02-17 04:09:00,25.3,22.0,29.54,NNW,343,3.0,14.0,87,0.00,,,0.00,VWS V14.01,2013-02-17 09:09:00,
2013-02-17 04:14:00,25.2,21.6,29.54,NE,38,3.0,17.0,86,0.00,,,0.00,VWS V14.01,2013-02-17 09:14:00,
2013-02-17 04:19:00,25.2,21.3,29.55,NW,304,2.0,17.0,85,0.00,,,0.00,VWS V14.01,2013-02-17 09:19:00,
2013-02-17 04:24:00,25.3,21.1,29.56,NNW,348,2.0,17.0,84,0.00,,,0.00,VWS V14.01,2013-02-17 09:24:00,
2013-02-17 04:29:00,25.3,20.9,29.55,North,360,4.0,17.0,83,0.00,,,0.00,VWS V14.01,2013-02-17 09:29:00,
2013-02-17 04:34:00,25.4,21.0,29.55,NNE,15,6.0,12.0,83,0.00,,,0.00,VWS V14.01,2013-02-17 09:34:00,
2013-02-17 04:39:00,25.4,20.7,29.55,NW,320,2.0,13.0,82,0.00,,,0.00,VWS V14.01,2013-02-17 09:39:00,
2013-02-17 04:44:00,25.4,20.7,29.56,NW,322,4.0,13.0,82,0.00,,,0.00,VWS V14.01,2013-02-17 09:44:00,
2013-02-17 04:49:00,25.4,20.4,29.56,North,5,4.0,13.0,81,0.00,,,0.00,VWS V14.01,2013-02-17 09:49:00,
2013-02-17 04:54:00,25.4,20.1,29.55,North,349,11.0,15.0,80,0.00,,,0.00,VWS V14.01,2013-02-17 09:54:00,
2013-02-17 04:59:00,25.3,20.0,29.54,WNW,303,3.0,15.0,80,0.00,,,0.00,VWS V14.01,2013-02-17 09:59:00,
2013-02-17 05:04:00,25.2,20.2,29.53,WNW,301,3.0,9.0,81,0.00,,,0.00,VWS V14.01,2013-02-17 10:04:00,
2013-02-17 05:09:00,25.1,20.1,29.52,NW,323,1.0,15.0,81,0.00,,,0.00,VWS V14.01,2013-02-17 10:09:00,
2013-02-17 05:14:00,24.9,20.2,29.51,NW,305,5.0,15.0,82,0.00,,,0.00,VWS V14.01,2013-02-17 10:14:00,
2013-02-17 05:19:00,24.7,20.0,29.52,North,360,8.0,15.0,82,0.00,,,0.00,VWS V14.01,2013-02-17 10:19:00,
2013-02-17 05:24:00,24.6,19.9,29.52,NW,319,7.0,15.0,82,0.00,,,0.00,VWS V14.01,2013-02-17 10:24:00,
2013-02-17 05:29:00,24.5,19.8,29.51,NW,312,6.0,15.0,82,0.00,,,0.00,VWS V14.01,2013-02-17 10:29:00,
2013-02-17 05:34:00,24.4,19.7,29.51,NE,51,6.0,15.0,82,0.00,,,0.00,VWS V14.01,2013-02-17 10:34:00,
2013-02-17 05:39:00,24.3,19.6,29.51,NW,307,14.0,16.0,82,0.00,,,0.00,VWS V14.01,2013-02-17 10:39:00,
2013-02-17 05:44:00,24.3,19.6,29.51,West,280,3.0,16.0,82,0.00,,,0.00,VWS V14.01,2013-02-17 10:44:00,
2013-02-17 05:49:00,24.3,19.3,29.51,NNE,17,6.0,17.0,81,0.00,,,0.00,VWS V14.01,2013-02-17 10:49:00,
2013-02-17 05:54:00,24.3,19.3,29.50,NNW,333,3.0,17.0,81,0.00,,,0.00,VWS V14.01,2013-02-17 10:54:00,
2013-02-17 05:59:00,24.3,19.0,29.50,NNW,329,18.0,18.0,80,0.00,,,0.00,VWS V14.01,2013-02-17 10:59:00,
2013-02-17 06:04:00,24.3,18.4,29.50,NW,317,3.0,11.0,78,0.00,,,0.00,VWS V14.01,2013-02-17 11:04:00,
2013-02-17 06:09:00,24.4,18.2,29.50,NW,326,11.0,17.0,77,0.00,,,0.00,VWS V14.01,2013-02-17 11:09:00,
2013-02-17 06:14:00,24.5,17.7,29.49,NW,306,6.0,20.0,75,0.00,,,0.00,VWS V14.01,2013-02-17 11:14:00,
2013-02-17 06:19:00,24.6,17.5,29.49,NW,320,5.0,20.0,74,0.00,,,0.00,VWS V14.01,2013-02-17 11:19:00,
2013-02-17 06:24:00,24.7,17.6,29.48,NNW,338,2.0,21.0,74,0.00,,,0.00,VWS V14.01,2013-02-17 11:24:00,
2013-02-17 06:29:00,24.8,17.4,29.48,NNW,346,12.0,21.0,73,0.00,,,0.00,VWS V14.01,2013-02-17 11:29:00,
2013-02-17 06:34:00,24.9,17.2,29.48,NW,317,3.0,13.0,72,0.00,,,0.00,VWS V14.01,2013-02-17 11:34:00,
2013-02-17 06:39:00,24.9,17.2,29.48,NNW,328,3.0,14.0,72,0.00,,,0.00,VWS V14.01,2013-02-17 11:39:00,
2013-02-17 06:44:00,25.0,16.9,29.48,West,273,7.0,17.0,71,0.00,,,0.00,VWS V14.01,2013-02-17 11:44:00,
2013-02-17 06:49:00,25.0,16.9,29.48,NE,47,3.0,17.0,71,0.00,,,0.00,VWS V14.01,2013-02-17 11:49:00,
2013-02-17 06:54:00,25.1,17.0,29.48,NNW,332,2.0,17.0,71,0.00,,,0.00,VWS V14.01,2013-02-17 11:54:00,
2013-02-17 06:59:00,25.1,17.4,29.48,North,5,5.0,23.0,72,0.00,,,0.00,VWS V14.01,2013-02-17 11:59:00,
2013-02-17 07:04:00,25.0,16.9,29.48,NNE,28,4.0,12.0,71,0.00,,,0.00,VWS V14.01,2013-02-17 12:04:00,
2013-02-17 07:09:00,25.0,16.9,29.48,NW,311,5.0,16.0,71,0.00,,,0.00,VWS V14.01,2013-02-17 12:09:00,
2013-02-17 07:14:00,24.8,16.8,29.48,WNW,300,10.0,21.0,71,0.00,,,0.00,VWS V14.01,2013-02-17 12:14:00,
2013-02-17 07:19:00,24.7,16.6,29.48,NW,326,9.0,21.0,71,0.00,,,0.00,VWS V14.01,2013-02-17 12:19:00,
2013-02-17 07:24:00,24.6,16.2,29.49,North,11,6.0,21.0,70,0.00,,,0.00,VWS V14.01,2013-02-17 12:24:00,
2013-02-17 07:29:00,24.5,16.1,29.48,WNW,302,11.0,24.0,70,0.00,,,0.00,VWS V14.01,2013-02-17 12:29:00,
2013-02-17 07:34:00,24.5,15.1,29.48,NNE,15,5.0,16.0,67,0.00,,,0.00,VWS V14.01,2013-02-17 12:34:00,
2013-02-17 07:39:00,24.7,14.6,29.48,WNW,297,17.0,17.0,65,0.00,,,0.00,VWS V14.01,2013-02-17 12:39:00,
2013-02-17 07:44:00,24.7,13.6,29.48,WNW,296,5.0,17.0,62,0.00,,,0.00,VWS V14.01,2013-02-17 12:44:00,
2013-02-17 07:49:00,24.9,13.7,29.48,NNE,13,10.0,18.0,62,0.00,,,0.00,VWS V14.01,2013-02-17 12:49:00,
2013-02-17 07:54:00,25.0,12.7,29.47,WNW,290,1.0,18.0,59,0.00,,,0.00,VWS V14.01,2013-02-17 12:54:00,
2013-02-17 07:59:00,25.2,12.5,29.47,NW,305,2.0,18.0,58,0.00,,,0.00,VWS V14.01,2013-02-17 12:59:00,
2013-02-17 08:04:00,25.3,12.6,29.47,WNW,294,6.0,19.0,58,0.00,,,0.00,VWS V14.01,2013-02-17 13:04:00,
2013-02-17 08:09:00,25.6,12.1,29.46,NW,313,2.0,19.0,56,0.00,,,0.00,VWS V14.01,2013-02-17 13:09:00,
2013-02-17 08:14:00,25.7,11.8,29.45,NNW,335,2.0,19.0,55,0.00,,,0.00,VWS V14.01,2013-02-17 13:14:00,
2013-02-17 08:19:00,25.8,11.9,29.45,WNW,289,5.0,19.0,55,0.00,,,0.00,VWS V14.01,2013-02-17 13:19:00,
2013-02-17 08:24:00,26.0,12.1,29.46,NW,317,10.0,19.0,55,0.00,,,0.00,VWS V14.01,2013-02-17 13:24:00,
2013-02-17 08:29:00,26.1,12.2,29.46,NNW,336,5.0,19.0,55,0.00,,,0.00,VWS V14.01,2013-02-17 13:29:00,
2013-02-17 08:34:00,26.1,11.7,29.46,NW,310,6.0,17.0,54,0.00,,,0.00,VWS V14.01,2013-02-17 13:34:00,
2013-02-17 08:39:00,26.2,11.8,29.46,North,5,4.0,17.0,54,0.00,,,0.00,VWS V14.01,2013-02-17 13:39:00,
2013-02-17 08:44:00,26.2,11.4,29.46,NW,322,4.0,21.0,53,0.00,,,0.00,VWS V14.01,2013-02-17 13:44:00,
2013-02-17 08:49:00,26.1,12.6,29.45,WNW,287,10.0,22.0,56,0.00,,,0.00,VWS V14.01,2013-02-17 13:49:00,
2013-02-17 08:54:00,26.0,10.8,29.45,North,350,20.0,22.0,52,0.00,,,0.00,VWS V14.01,2013-02-17 13:54:00,
2013-02-17 08:59:00,26.0,10.4,29.45,NW,326,6.0,22.0,51,0.00,,,0.00,VWS V14.01,2013-02-17 13:59:00,
2013-02-17 09:04:00,26.0,10.4,29.45,NW,307,5.0,16.0,51,0.00,,OVC065,0.00,VWS V14.01,2013-02-17 14:04:00,
2013-02-17 09:09:00,26.1,10.0,29.45,NNW,340,4.0,16.0,50,0.00,,OVC065,0.00,VWS V14.01,2013-02-17 14:09:00,
2013-02-17 09:14:00,26.1,10.0,29.45,West,275,6.0,22.0,50,0.00,,OVC065,0.00,VWS V14.01,2013-02-17 14:14:00,
2013-02-17 09:19:00,26.2,10.1,29.45,WNW,300,8.0,22.0,50,0.00,,OVC065,0.00,VWS V14.01,2013-02-17 14:19:00,
2013-02-17 09:24:00,26.2,9.7,29.45,NW,311,2.0,23.0,49,0.00,,OVC065,0.00,VWS V14.01,2013-02-17 14:24:00,
2013-02-17 09:30:00,26.2,9.2,29.45,NNW,337,10.0,23.0,48,0.00,,OVC065,0.00,VWS V14.01,2013-02-17 14:30:00,
2013-02-17 09:35:00,26.3,9.3,29.44,NW,307,3.0,23.0,48,0.00,,OVC065,0.00,VWS V14.01,2013-02-17 14:35:00,
2013-02-17 09:40:00,26.3,9.8,29.45,NW,304,3.0,23.0,49,0.00,,OVC065,0.00,VWS V14.01,2013-02-17 14:40:00,
2013-02-17 09:45:00,26.5,9.9,29.45,North,5,6.0,23.0,49,0.00,,OVC065,0.00,VWS V14.01,2013-02-17 14:45:00,
2013-02-17 09:50:00,26.5,9.9,29.45,WSW,240,2.0,23.0,49,0.00,,OVC065,0.00,VWS V14.01,2013-02-17 14:50:00,
2013-02-17 09:55:00,26.5,10.4,29.45,NNW,335,6.0,23.0,50,0.00,,OVC065,0.00,VWS V14.01,2013-02-17 14:55:00,
2013-02-17 10:00:00,26.5,9.9,29.45,WNW,301,13.0,23.0,49,0.00,,OVC065,0.00,VWS V14.01,2013-02-17 15:00:00,
2013-02-17 10:05:00,26.6,10.5,29.46,South,182,5.0,7.0,50,0.00,,OVC085,0.00,VWS V14.01,2013-02-17 15:05:00,
2013-02-17 10:10:00,26.7,11.0,29.46,NW,313,4.0,11.0,51,0.00,,OVC085,0.00,VWS V14.01,2013-02-17 15:10:00,
2013-02-17 10:15:00,26.6,10.5,29.46,NNE,28,7.0,24.0,50,0.00,,OVC085,0.00,VWS V14.01,2013-02-17 15:15:00,
2013-02-17 10:20:00,26.6,10.0,29.46,West,274,3.0,24.0,49,0.00,,OVC085,0.00,VWS V14.01,2013-02-17 15:20:00,
2013-02-17 10:25:00,26.7,10.1,29.46,South,190,3.0,24.0,49,0.00,,OVC085,0.00,VWS V14.01,2013-02-17 15:25:00,
2013-02-17 10:30:00,26.7,10.1,29.45,NW,316,6.0,24.0,49,0.00,,OVC085,0.00,VWS V14.01,2013-02-17 15:30:00,
2013-02-17 10:35:00,26.9,11.2,29.46,West,269,4.0,11.0,51,0.00,,OVC085,0.00,VWS V14.01,2013-02-17 15:35:00,
2013-02-17 10:40:00,27.0,10.9,29.46,WNW,300,4.0,18.0,50,0.00,,OVC085,0.00,VWS V14.01,2013-02-17 15:40:00,
2013-02-17 10:45:00,27.1,11.4,29.46,SW,214,2.0,18.0,51,0.00,,OVC085,0.00,VWS V14.01,2013-02-17 15:45:00,
2013-02-17 10:50:00,27.2,11.5,29.46,West,272,7.0,18.0,51,0.00,,OVC085,0.00,VWS V14.01,2013-02-17 15:50:00,
2013-02-17 10:55:00,27.4,11.2,29.46,WSW,251,12.0,18.0,50,0.00,,OVC085,0.00,VWS V14.01,2013-02-17 15:55:00,
2013-02-17 11:00:00,27.4,11.2,29.47,West,279,9.0,18.0,50,0.00,,OVC085,0.00,VWS V14.01,2013-02-17 16:00:00,
2013-02-17 11:05:00,27.3,9.7,29.46,West,261,7.0,17.0,47,0.00,,OVC100,0.00,VWS V14.01,2013-02-17 16:05:00,
2013-02-17 11:10:00,27.3,10.2,29.47,WNW,284,3.0,17.0,48,0.00,,OVC100,0.00,VWS V14.01,2013-02-17 16:10:00,
2013-02-17 11:15:00,27.5,10.4,29.47,SSE,163,5.0,17.0,48,0.00,,OVC100,0.00,VWS V14.01,2013-02-17 16:15:00,
2013-02-17 11:20:00,27.7,10.1,29.47,WSW,250,2.0,17.0,47,0.00,,OVC100,0.00,VWS V14.01,2013-02-17 16:20:00,
2013-02-17 11:25:00,27.9,10.8,29.47,NW,309,6.0,18.0,48,0.00,,OVC100,0.00,VWS V14.01,2013-02-17 16:25:00,
2013-02-17 11:30:00,28.0,9.9,29.47,NNW,338,11.0,18.0,46,0.00,,OVC100,0.00,VWS V14.01,2013-02-17 16:30:00,
2013-02-17 11:35:00,28.0,9.9,29.47,NW,314,5.0,17.0,46,0.00,,OVC100,0.00,VWS V14.01,2013-02-17 16:35:00,
2013-02-17 11:40:00,28.0,9.9,29.47,NW,322,11.0,19.0,46,0.00,,OVC100,0.00,VWS V14.01,2013-02-17 16:40:00,
2013-02-17 11:45:00,28.1,10.5,29.48,West,277,12.0,20.0,47,0.00,,OVC100,0.00,VWS V14.01,2013-02-17 16:45:00,
2013-02-17 11:50:00,28.2,9.1,29.47,NW,306,4.0,20.0,44,0.00,,OVC100,0.00,VWS V14.01,2013-02-17 16:50:00,
2013-02-17 11:55:00,28.4,10.8,29.47,West,276,3.0,20.0,47,0.00,,OVC100,0.00,VWS V14.01,2013-02-17 16:55:00,
2013-02-17 12:00:00,28.8,10.1,29.47,NW,306,4.0,20.0,45,0.00,,OVC100,0.00,VWS V14.01,2013-02-17 17:00:00,
2013-02-17 12:05:00,29.1,10.4,29.47,NW,311,9.0,11.0,45,0.00,,CLR,0.00,VWS V14.01,2013-02-17 17:05:00,
2013-02-17 12:10:00,29.4,10.7,29.47,West,272,10.0,14.0,45,0.00,,CLR,0.00,VWS V14.01,2013-02-17 17:10:00,
2013-02-17 12:15:00,29.6,9.9,29.48,WSW,240,4.0,16.0,43,0.00,,CLR,0.00,VWS V14.01,2013-02-17 17:15:00,
2013-02-17 12:20:00,29.8,11.1,29.47,WSW,248,9.0,20.0,45,0.00,,CLR,0.00,VWS V14.01,2013-02-17 17:20:00,
2013-02-17 12:25:00,30.1,11.3,29.47,North,350,3.0,20.0,45,0.00,,CLR,0.00,VWS V14.01,2013-02-17 17:25:00,
2013-02-17 12:30:00,30.3,11.0,29.48,NNW,330,7.0,20.0,44,0.00,,CLR,0.00,VWS V14.01,2013-02-17 17:30:00,
2013-02-17 12:35:00,30.5,11.2,29.48,WSW,238,11.0,14.0,44,0.00,,CLR,0.00,VWS V14.01,2013-02-17 17:35:00,
2013-02-17 12:40:00,30.8,11.0,29.48,NNW,333,2.0,14.0,43,0.00,,CLR,0.00,VWS V14.01,2013-02-17 17:40:00,
2013-02-17 12:45:00,31.0,11.7,29.48,West,277,6.0,18.0,44,0.00,,CLR,0.00,VWS V14.01,2013-02-17 17:45:00,
2013-02-17 12:50:00,31.1,11.8,29.48,NW,309,4.0,18.0,44,0.00,,CLR,0.00,VWS V14.01,2013-02-17 17:50:00,
2013-02-17 12:55:00,31.3,11.4,29.49,West,279,6.0,20.0,43,0.00,,CLR,0.00,VWS V14.01,2013-02-17 17:55:00,
2013-02-17 13:00:00,31.4,11.5,29.49,NNW,346,3.0,20.0,43,0.00,,CLR,0.00,VWS V14.01,2013-02-17 18:00:00,
2013-02-17 13:05:00,31.7,11.8,29.49,SW,236,4.0,12.0,43,0.00,,CLR,0.00,VWS V14.01,2013-02-17 18:05:00,
2013-02-17 13:10:00,32.0,11.5,29.49,SW,234,3.0,20.0,42,0.00,,CLR,0.00,VWS V14.01,2013-02-17 18:10:00,
2013-02-17 13:15:00,32.3,12.3,29.49,WSW,249,4.0,20.0,43,0.00,,CLR,0.00,VWS V14.01,2013-02-17 18:15:00,
2013-02-17 13:20:00,32.1,11.1,29.49,West,280,5.0,21.0,41,0.00,,CLR,0.00,VWS V14.01,2013-02-17 18:20:00,
2013-02-17 13:25:00,31.9,11.4,29.49,NW,313,2.0,21.0,42,0.00,,CLR,0.00,VWS V14.01,2013-02-17 18:25:00,
2013-02-17 13:30:00,31.8,11.3,29.50,North,5,8.0,21.0,42,0.00,,CLR,0.00,VWS V14.01,2013-02-17 18:30:00,
2013-02-17 13:35:00,31.4,11.0,29.50,West,265,11.0,20.0,42,0.00,,CLR,0.00,VWS V14.01,2013-02-17 18:35:00,
2013-02-17 13:40:00,31.4,10.4,29.50,WSW,244,11.0,20.0,41,0.00,,CLR,0.00,VWS V14.01,2013-02-17 18:40:00,
2013-02-17 13:45:00,31.4,10.4,29.50,SW,227,5.0,20.0,41,0.00,,CLR,0.00,VWS V14.01,2013-02-17 18:45:00,
2013-02-17 13:50:00,31.2,9.7,29.50,West,277,6.0,20.0,40,0.00,,CLR,0.00,VWS V14.01,2013-02-17 18:50:00,
2013-02-17 13:55:00,31.0,10.6,29.50,WNW,293,13.0,20.0,42,0.00,,CLR,0.00,VWS V14.01,2013-02-17 18:55:00,
2013-02-17 14:00:00,31.0,10.1,29.51,West,279,6.0,28.0,41,0.00,,CLR,0.00,VWS V14.01,2013-02-17 19:00:00,
2013-02-17 14:05:00,30.8,9.3,29.51,NNW,328,7.0,26.0,40,0.00,,CLR,0.00,VWS V14.01,2013-02-17 19:05:00,
2013-02-17 14:10:00,30.5,9.1,29.51,West,263,9.0,26.0,40,0.00,,CLR,0.00,VWS V14.01,2013-02-17 19:10:00,
2013-02-17 14:15:00,30.4,9.5,29.51,NNW,334,6.0,26.0,41,0.00,,CLR,0.00,VWS V14.01,2013-02-17 19:15:00,
2013-02-17 14:20:00,30.4,8.4,29.51,NNW,340,13.0,26.0,39,0.00,,CLR,0.00,VWS V14.01,2013-02-17 19:20:00,
2013-02-17 14:25:00,30.2,8.8,29.51,WNW,296,7.0,26.0,40,0.00,,CLR,0.00,VWS V14.01,2013-02-17 19:25:00,
2013-02-17 14:30:00,30.2,9.4,29.51,NW,310,9.0,26.0,41,0.00,,CLR,0.00,VWS V14.01,2013-02-17 19:30:00,
2013-02-17 14:35:00,30.1,8.7,29.52,NNW,343,6.0,18.0,40,0.00,,CLR,0.00,VWS V14.01,2013-02-17 19:35:00,
2013-02-17 14:40:00,30.1,7.6,29.52,West,265,3.0,19.0,38,0.00,,CLR,0.00,VWS V14.01,2013-02-17 19:40:00,
2013-02-17 14:45:00,30.3,8.3,29.52,NNW,329,16.0,19.0,39,0.00,,CLR,0.00,VWS V14.01,2013-02-17 19:45:00,
2013-02-17 14:50:00,30.4,9.0,29.52,West,271,7.0,19.0,40,0.00,,CLR,0.00,VWS V14.01,2013-02-17 19:50:00,
2013-02-17 14:55:00,30.5,9.1,29.52,WSW,246,2.0,19.0,40,0.00,,CLR,0.00,VWS V14.01,2013-02-17 19:55:00,
2013-02-17 15:00:00,30.5,7.3,29.53,West,273,2.0,19.0,37,0.00,,CLR,0.00,VWS V14.01,2013-02-17 20:00:00,
2013-02-17 15:05:00,30.5,9.1,29.53,NW,319,2.0,10.0,40,0.00,,CLR,0.00,VWS V14.01,2013-02-17 20:05:00,
2013-02-17 15:10:00,30.5,7.9,29.53,WNW,294,2.0,17.0,38,0.00,,CLR,0.00,VWS V14.01,2013-02-17 20:10:00,
2013-02-17 15:15:00,30.5,8.5,29.53,WSW,258,5.0,17.0,39,0.00,,CLR,0.00,VWS V14.01,2013-02-17 20:15:00,
2013-02-17 15:20:00,30.4,7.8,29.54,NNW,342,19.0,25.0,38,0.00,,CLR,0.00,VWS V14.01,2013-02-17 20:20:00,
2013-02-17 15:25:00,30.2,7.1,29.54,South,179,10.0,25.0,37,0.00,,CLR,0.00,VWS V14.01,2013-02-17 20:25:00,
2013-02-17 15:30:00,30.1,7.6,29.54,NNE,30,10.0,25.0,38,0.00,,CLR,0.00,VWS V14.01,2013-02-17 20:30:00,
2013-02-17 15:35:00,30.0,6.9,29.54,NW,315,11.0,15.0,37,0.00,,CLR,0.00,VWS V14.01,2013-02-17 20:35:00,
2013-02-17 15:40:00,29.9,8.0,29.54,West,267,4.0,15.0,39,0.00,,CLR,0.00,VWS V14.01,2013-02-17 20:40:00,
2013-02-17 15:45:00,29.8,7.3,29.54,WNW,297,6.0,17.0,38,0.00,,CLR,0.00,VWS V14.01,2013-02-17 20:45:00,
2013-02-17 15:50:00,29.8,7.9,29.55,SW,221,3.0,17.0,39,0.00,,CLR,0.00,VWS V14.01,2013-02-17 20:50:00,
2013-02-17 15:55:00,29.8,9.0,29.55,NNE,12,3.0,17.0,41,0.00,,CLR,0.00,VWS V14.01,2013-02-17 20:55:00,
2013-02-17 16:00:00,29.7,7.2,29.54,North,355,6.0,22.0,38,0.00,,CLR,0.00,VWS V14.01,2013-02-17 21:00:00,
2013-02-17 16:06:00,29.5,7.6,29.55,NW,318,13.0,20.0,39,0.00,,CLR,0.00,VWS V14.01,2013-02-17 21:06:00,
2013-02-17 16:11:00,29.4,6.9,29.55,NNW,330,6.0,20.0,38,0.00,,CLR,0.00,VWS V14.01,2013-02-17 21:11:00,
2013-02-17 16:16:00,29.3,6.3,29.56,NNW,335,3.0,20.0,37,0.00,,CLR,0.00,VWS V14.01,2013-02-17 21:16:00,
2013-02-17 16:21:00,29.2,7.3,29.56,WNW,284,6.0,20.0,39,0.00,,CLR,0.00,VWS V14.01,2013-02-17 21:21:00,
2013-02-17 16:26:00,29.1,7.2,29.56,West,267,14.0,20.0,39,0.00,,CLR,0.00,VWS V14.01,2013-02-17 21:26:00,
2013-02-17 16:31:00,28.9,6.5,29.56,NE,46,5.0,22.0,38,0.00,,CLR,0.00,VWS V14.01,2013-02-17 21:31:00,
2013-02-17 16:36:00,28.7,6.3,29.57,NNE,23,8.0,20.0,38,0.00,,CLR,0.00,VWS V14.01,2013-02-17 21:36:00,
2013-02-17 16:41:00,28.5,7.3,29.57,WNW,292,5.0,20.0,40,0.00,,CLR,0.00,VWS V14.01,2013-02-17 21:41:00,
2013-02-17 16:46:00,28.4,6.6,29.57,West,273,6.0,20.0,39,0.00,,CLR,0.00,VWS V14.01,2013-02-17 21:46:00,
2013-02-17 16:51:00,28.3,6.0,29.58,WSW,250,4.0,20.0,38,0.00,,CLR,0.00,VWS V14.01,2013-02-17 21:51:00,
2013-02-17 16:56:00,28.2,5.9,29.58,WSW,248,14.0,20.0,38,0.00,,CLR,0.00,VWS V14.01,2013-02-17 21:56:00,
2013-02-17 17:01:00,28.1,6.3,29.58,WNW,282,14.0,20.0,39,0.00,,CLR,0.00,VWS V14.01,2013-02-17 22:01:00,
2013-02-17 17:06:00,28.0,6.3,29.59,West,276,10.0,19.0,39,0.00,,CLR,0.00,VWS V14.01,2013-02-17 22:06:00,
2013-02-17 17:11:00,27.8,7.2,29.59,NW,304,10.0,19.0,41,0.00,,CLR,0.00,VWS V14.01,2013-02-17 22:11:00,
2013-02-17 17:16:00,27.6,5.3,29.59,SW,229,6.0,19.0,38,0.00,,CLR,0.00,VWS V14.01,2013-02-17 22:16:00,
2013-02-17 17:21:00,27.5,5.8,29.60,SW,236,11.0,19.0,39,0.00,,CLR,0.00,VWS V14.01,2013-02-17 22:21:00,
2013-02-17 17:26:00,27.4,6.3,29.60,WSW,237,9.0,23.0,40,0.00,,CLR,0.00,VWS V14.01,2013-02-17 22:26:00,
2013-02-17 17:31:00,27.2,5.5,29.61,West,259,7.0,23.0,39,0.00,,CLR,0.00,VWS V14.01,2013-02-17 22:31:00,
2013-02-17 17:36:00,27.1,6.0,29.61,NW,318,7.0,20.0,40,0.00,,CLR,0.00,VWS V14.01,2013-02-17 22:36:00,
2013-02-17 17:41:00,27.0,6.4,29.61,WNW,286,12.0,20.0,41,0.00,,CLR,0.00,VWS V14.01,2013-02-17 22:41:00,
2013-02-17 17:46:00,26.9,6.4,29.62,West,280,6.0,20.0,41,0.00,,CLR,0.00,VWS V14.01,2013-02-17 22:46:00,
2013-02-17 17:51:00,26.8,5.7,29.62,West,273,3.0,20.0,40,0.00,,CLR,0.00,VWS V14.01,2013-02-17 22:51:00,
2013-02-17 17:56:00,26.7,6.2,29.62,West,261,4.0,20.0,41,0.00,,CLR,0.00,VWS V14.01,2013-02-17 22:56:00,
2013-02-17 18:01:00,26.7,6.2,29.63,WSW,252,2.0,20.0,41,0.00,,CLR,0.00,VWS V14.01,2013-02-17 23:01:00,
2013-02-17 18:06:00,26.6,6.1,29.64,WSW,240,6.0,17.0,41,0.00,,CLR,0.00,VWS V14.01,2013-02-17 23:06:00,
2013-02-17 18:11:00,26.5,6.5,29.64,NW,317,2.0,17.0,42,0.00,,CLR,0.00,VWS V14.01,2013-02-17 23:11:00,
2013-02-17 18:16:00,26.4,6.4,29.64,NW,317,3.0,20.0,42,0.00,,CLR,0.00,VWS V14.01,2013-02-17 23:16:00,
2013-02-17 18:21:00,26.3,6.3,29.64,WNW,297,6.0,20.0,42,0.00,,CLR,0.00,VWS V14.01,2013-02-17 23:21:00,
2013-02-17 18:26:00,26.2,6.2,29.64,NNW,331,4.0,20.0,42,0.00,,CLR,0.00,VWS V14.01,2013-02-17 23:26:00,
2013-02-17 18:31:00,26.1,6.2,29.65,NW,311,9.0,20.0,42,0.00,,CLR,0.00,VWS V14.01,2013-02-17 23:31:00,
2013-02-17 18:36:00,26.0,6.6,29.64,NW,318,12.0,19.0,43,0.00,,CLR,0.00,VWS V14.01,2013-02-17 23:36:00,
2013-02-17 18:41:00,25.9,6.5,29.65,NW,322,7.0,19.0,43,0.00,,CLR,0.00,VWS V14.01,2013-02-17 23:41:00,
2013-02-17 18:46:00,25.8,5.9,29.65,West,271,11.0,20.0,42,0.00,,CLR,0.00,VWS V14.01,2013-02-17 23:46:00,
2013-02-17 18:51:00,25.6,6.2,29.65,WSW,238,2.0,20.0,43,0.00,,CLR,0.00,VWS V14.01,2013-02-17 23:51:00,
2013-02-17 18:56:00,25.6,6.2,29.66,WNW,300,4.0,20.0,43,0.00,,CLR,0.00,VWS V14.01,2013-02-17 23:56:00,
2013-02-17 19:01:00,25.4,6.0,29.65,NW,309,10.0,20.0,43,0.00,,CLR,0.00,VWS V14.01,2013-02-18 00:01:00,
2013-02-17 19:06:00,25.3,6.4,29.66,West,271,3.0,12.0,44,0.00,,CLR,0.00,VWS V14.01,2013-02-18 00:06:00,
2013-02-17 19:11:00,25.2,6.4,29.66,WNW,300,6.0,19.0,44,0.00,,CLR,0.00,VWS V14.01,2013-02-18 00:11:00,
2013-02-17 19:16:00,25.0,5.7,29.66,WNW,295,15.0,20.0,43,0.00,,CLR,0.00,VWS V14.01,2013-02-18 00:16:00,
2013-02-17 19:21:00,24.9,5.6,29.66,WNW,283,9.0,20.0,43,0.00,,CLR,0.00,VWS V14.01,2013-02-18 00:21:00,
2013-02-17 19:26:00,24.7,5.4,29.66,SSW,206,6.0,22.0,43,0.00,,CLR,0.00,VWS V14.01,2013-02-18 00:26:00,
2013-02-17 19:31:00,24.5,5.7,29.67,WNW,298,7.0,22.0,44,0.00,,CLR,0.00,VWS V14.01,2013-02-18 00:31:00,
2013-02-17 19:36:00,24.3,5.0,29.67,North,349,10.0,23.0,43,0.00,,CLR,0.00,VWS V14.01,2013-02-18 00:36:00,
2013-02-17 19:41:00,24.2,4.9,29.67,SW,219,5.0,25.0,43,0.00,,CLR,0.00,VWS V14.01,2013-02-18 00:41:00,
2013-02-17 19:46:00,24.0,4.8,29.67,West,261,6.0,25.0,43,0.00,,CLR,0.00,VWS V14.01,2013-02-18 00:46:00,
2013-02-17 19:51:00,23.8,7.0,29.67,SW,227,6.0,25.0,48,0.00,,CLR,0.00,VWS V14.01,2013-02-18 00:51:00,
2013-02-17 19:56:00,23.6,5.9,29.67,SSW,209,7.0,34.0,46,0.00,,CLR,0.00,VWS V14.01,2013-02-18 00:56:00,
2013-02-17 20:01:00,23.4,5.7,29.67,WSW,243,4.0,34.0,46,0.00,,CLR,0.00,VWS V14.01,2013-02-18 01:01:00,
2013-02-17 20:06:00,23.3,5.6,29.67,NW,318,7.0,14.0,46,0.00,,CLR,0.00,VWS V14.01,2013-02-18 01:06:00,
2013-02-17 20:11:00,23.1,5.4,29.67,West,272,4.0,19.0,46,0.00,,CLR,0.00,VWS V14.01,2013-02-18 01:11:00,
2013-02-17 20:16:00,23.0,5.3,29.67,NNW,336,4.0,19.0,46,0.00,,CLR,0.00,VWS V14.01,2013-02-18 01:16:00,
2013-02-17 20:21:00,22.9,5.2,29.68,North,5,4.0,19.0,46,0.00,,CLR,0.00,VWS V14.01,2013-02-18 01:21:00,
2013-02-17 20:26:00,22.8,5.1,29.68,WSW,253,13.0,19.0,46,0.00,,CLR,0.00,VWS V14.01,2013-02-18 01:26:00,
2013-02-17 20:31:00,22.6,4.5,29.68,NW,313,13.0,24.0,45,0.00,,CLR,0.00,VWS V14.01,2013-02-18 01:31:00,
2013-02-17 20:36:00,22.5,4.9,29.69,WNW,288,14.0,22.0,46,0.00,,CLR,0.00,VWS V14.01,2013-02-18 01:36:00,
2013-02-17 20:41:00,22.4,4.8,29.69,NW,313,13.0,22.0,46,0.00,,CLR,0.00,VWS V14.01,2013-02-18 01:41:00,
2013-02-17 20:46:00,22.3,5.1,29.69,WSW,247,9.0,26.0,47,0.00,,CLR,0.00,VWS V14.01,2013-02-18 01:46:00,
2013-02-17 20:51:00,22.1,5.0,29.69,NNW,342,5.0,26.0,47,0.00,,CLR,0.00,VWS V14.01,2013-02-18 01:51:00,
2013-02-17 20:56:00,21.9,4.8,29.69,SW,225,16.0,26.0,47,0.00,,CLR,0.00,VWS V14.01,2013-02-18 01:56:00,
2013-02-17 21:01:00,21.8,5.1,29.69,NNW,338,11.0,26.0,48,0.00,,CLR,0.00,VWS V14.01,2013-02-18 02:01:00,
2013-02-17 21:06:00,21.7,5.1,29.68,SW,229,12.0,20.0,48,0.00,,CLR,0.00,VWS V14.01,2013-02-18 02:06:00,
2013-02-17 21:11:00,21.5,4.9,29.70,NNE,21,7.0,21.0,48,0.00,,CLR,0.00,VWS V14.01,2013-02-18 02:11:00,
2013-02-17 21:16:00,21.4,5.2,29.70,West,260,11.0,21.0,49,0.00,,CLR,0.00,VWS V14.01,2013-02-18 02:16:00,
2013-02-17 21:21:00,21.3,4.7,29.70,NW,304,10.0,23.0,48,0.00,,CLR,0.00,VWS V14.01,2013-02-18 02:21:00,
2013-02-17 21:26:00,21.1,4.9,29.70,West,259,5.0,25.0,49,0.00,,CLR,0.00,VWS V14.01,2013-02-18 02:26:00,
2013-02-17 21:31:00,21.0,4.8,29.71,West,266,6.0,7.0,49,0.00,,CLR,0.00,VWS V14.01,2013-02-18 02:31:00,
2013-02-17 21:36:00,20.9,5.2,29.71,South,181,6.0,22.0,50,0.00,,CLR,0.00,VWS V14.01,2013-02-18 02:36:00,
2013-02-17 21:41:00,20.9,5.2,29.71,West,278,12.0,22.0,50,0.00,,CLR,0.00,VWS V14.01,2013-02-18 02:41:00,
2013-02-17 21:46:00,20.8,5.1,29.71,WSW,257,9.0,22.0,50,0.00,,CLR,0.00,VWS V14.01,2013-02-18 02:46:00,
2013-02-17 21:51:00,20.7,5.0,29.71,NW,309,7.0,22.0,50,0.00,,CLR,0.00,VWS V14.01,2013-02-18 02:51:00,
2013-02-17 21:56:00,20.6,4.9,29.72,SW,219,6.0,22.0,50,0.00,,CLR,0.00,VWS V14.01,2013-02-18 02:56:00,
2013-02-17 22:01:00,20.5,5.3,29.71,WSW,251,16.0,30.0,51,0.00,,CLR,0.00,VWS V14.01,2013-02-18 03:01:00,
2013-02-17 22:06:00,20.4,5.2,29.72,NW,304,3.0,30.0,51,0.00,,CLR,0.00,VWS V14.01,2013-02-18 03:06:00,
2013-02-17 22:11:00,20.4,5.2,29.72,WSW,246,10.0,30.0,51,0.00,,CLR,0.00,VWS V14.01,2013-02-18 03:11:00,
2013-02-17 22:16:00,20.3,5.1,29.72,WNW,300,6.0,30.0,51,0.00,,CLR,0.00,VWS V14.01,2013-02-18 03:16:00,
2013-02-17 22:21:00,20.3,5.5,29.72,North,360,1.0,30.0,52,0.00,,CLR,0.00,VWS V14.01,2013-02-18 03:21:00,
2013-02-17 22:26:00,20.2,5.4,29.72,West,259,6.0,30.0,52,0.00,,CLR,0.00,VWS V14.01,2013-02-18 03:26:00,
2013-02-17 22:31:00,20.1,5.7,29.73,West,273,10.0,12.0,53,0.00,,CLR,0.00,VWS V14.01,2013-02-18 03:31:00,
2013-02-17 22:36:00,20.0,5.6,29.73,ESE,119,8.0,21.0,53,0.00,,CLR,0.00,VWS V14.01,2013-02-18 03:36:00,
2013-02-17 22:41:00,20.0,5.6,29.73,WNW,296,23.0,23.0,53,0.00,,CLR,0.00,VWS V14.01,2013-02-18 03:41:00,
2013-02-17 22:46:00,19.9,5.9,29.73,WSW,239,12.0,23.0,54,0.00,,CLR,0.00,VWS V14.01,2013-02-18 03:46:00,
2013-02-17 22:51:00,19.8,5.8,29.73,WSW,250,12.0,23.0,54,0.00,,CLR,0.00,VWS V14.01,2013-02-18 03:51:00,
2013-02-17 22:56:00,19.8,5.8,29.74,West,267,5.0,23.0,54,0.00,,CLR,0.00,VWS V14.01,2013-02-18 03:56:00,
2013-02-17 23:01:00,19.7,5.8,29.74,WNW,300,7.0,14.0,54,0.00,,CLR,0.00,VWS V14.01,2013-02-18 04:01:00,
2013-02-17 23:06:00,19.7,5.8,29.74,WSW,250,9.0,20.0,54,0.00,,CLR,0.00,VWS V14.01,2013-02-18 04:06:00,
2013-02-17 23:11:00,19.7,6.2,29.75,SSE,168,2.0,20.0,55,0.00,,CLR,0.00,VWS V14.01,2013-02-18 04:11:00,
2013-02-17 23:16:00,19.6,6.1,29.75,NW,311,6.0,20.0,55,0.00,,CLR,0.00,VWS V14.01,2013-02-18 04:16:00,
2013-02-17 23:21:00,19.6,5.7,29.75,NW,313,5.0,20.0,54,0.00,,CLR,0.00,VWS V14.01,2013-02-18 04:21:00,
2013-02-17 23:26:00,19.5,6.0,29.75,WSW,242,5.0,20.0,55,0.00,,CLR,0.00,VWS V14.01,2013-02-18 04:26:00,
2013-02-17 23:31:00,19.5,6.0,29.76,NW,325,5.0,12.0,55,0.00,,CLR,0.00,VWS V14.01,2013-02-18 04:31:00,
2013-02-17 23:36:00,19.5,6.0,29.76,North,11,2.0,22.0,55,0.00,,CLR,0.00,VWS V14.01,2013-02-18 04:36:00,
2013-02-17 23:41:00,19.4,5.9,29.76,West,268,11.0,22.0,55,0.00,,CLR,0.00,VWS V14.01,2013-02-18 04:41:00,
2013-02-17 23:46:00,19.4,5.9,29.77,SW,233,15.0,22.0,55,0.00,,CLR,0.00,VWS V14.01,2013-02-18 04:46:00,
2013-02-17 23:51:00,19.3,5.8,29.77,NW,304,2.0,22.0,55,0.00,,CLR,0.00,VWS V14.01,2013-02-18 04:51:00,
2013-02-17 23:56:00,19.3,5.8,29.77,NW,324,5.0,22.0,55,0.00,,CLR,0.00,VWS V14.01,2013-02-18 04:56:00,